| time (UTC) | temp F | wind direction | speed knots | gust knots | rain 1hr in | rain 24hr in | rain mn in | humidity % | barometer mb |
| 20260901094504 | 52 | 194 | 0.0 | 0.0 | 0.00 | 0.08 | 0.00 | 92 | 1012.0 |
| 20260901093001 | 52 | 194 | 0.0 | 0.0 | 0.00 | 0.08 | 0.00 | 91 | 1011.9 |
| 20260901091601 | 52 | 194 | 0.0 | 0.0 | 0.00 | 0.08 | 0.00 | 91 | 1012.1 |
| 20260901090158 | 52 | 194 | 0.0 | 0.0 | 0.00 | 0.08 | 0.00 | 92 | 1012.1 |
| 20260901084556 | 52 | 194 | 0.0 | 0.0 | 0.00 | 0.08 | 0.00 | 92 | 1012.5 |
| 20260901083054 | 52 | 194 | 0.0 | 0.9 | 0.00 | 0.08 | 0.00 | 92 | 1012.5 |
| 20260901081600 | 53 | 194 | 0.0 | 0.0 | 0.00 | 0.08 | 0.00 | 92 | 1013.0 |
| 20260901080143 | 53 | 194 | 0.0 | 0.0 | 0.00 | 0.08 | 0.00 | 92 | 1013.0 |
| 20260901074553 | 53 | 194 | 0.0 | 0.9 | 0.00 | 0.08 | 0.00 | 91 | 1013.1 |
| 20260901073052 | 53 | 220 | 0.0 | 0.0 | 0.00 | 0.08 | 0.00 | 91 | 1013.0 |
| 20260901071550 | 53 | 220 | 0.0 | 0.0 | 0.00 | 0.08 | 0.00 | 91 | 1012.9 |
| 20260901070100 | 53 | 220 | 0.0 | 0.0 | 0.00 | 0.08 | 0.00 | 90 | 1012.7 |
| 20260901064559 | 53 | 220 | 0.0 | 0.0 | 0.00 | 0.08 | 0.00 | 90 | 1012.8 |
| 20260901063057 | 53 | 159 | 0.0 | 0.9 | 0.00 | 0.08 | 0.00 | 91 | 1012.8 |
| 20260901061600 | 53 | 209 | 0.0 | 0.0 | 0.00 | 0.08 | 0.00 | 91 | 1012.9 |
| 20260901060044 | 53 | 209 | 0.0 | 0.0 | 0.00 | 0.08 | 0.08 | 90 | 1012.8 |
| 20260901054550 | 53 | 209 | 0.0 | 0.0 | 0.00 | 0.08 | 0.08 | 90 | 1012.8 |
| 20260901053042 | 53 | 209 | 0.0 | 0.0 | 0.00 | 0.08 | 0.08 | 90 | 1012.9 |
| 20260901051542 | 53 | 209 | 0.0 | 0.0 | 0.00 | 0.08 | 0.08 | 89 | 1012.9 |
| 20260901050042 | 53 | 209 | 0.0 | 0.0 | 0.00 | 0.08 | 0.08 | 89 | 1013.0 |
| 20260901044558 | 53 | 209 | 0.0 | 0.0 | 0.01 | 0.08 | 0.08 | 89 | 1013.0 |
| 20260901043042 | 54 | 180 | 0.0 | 2.6 | 0.03 | 0.08 | 0.08 | 88 | 1012.9 |
| 20260901041540 | 54 | 197 | 0.0 | 1.7 | 0.05 | 0.08 | 0.08 | 87 | 1012.5 |
| 20260901040053 | 55 | 197 | 0.0 | 1.7 | 0.05 | 0.08 | 0.08 | 86 | 1013.3 |
| 20260901034540 | 56 | 197 | 0.0 | 0.0 | 0.04 | 0.07 | 0.07 | 84 | 1014.2 |
| 20260901033038 | 56 | 204 | 0.0 | 5.2 | 0.02 | 0.05 | 0.05 | 80 | 1014.4 |
| 20260901031537 | 56 | 232 | 3.5 | 8.7 | 0.00 | 0.03 | 0.03 | 79 | 1013.9 |
| 20260901030039 | 55 | 236 | 0.0 | 0.0 | 0.00 | 0.03 | 0.03 | 82 | 1013.3 |
| 20260901024547 | 55 | 236 | 0.0 | 0.0 | 0.00 | 0.03 | 0.03 | 82 | 1013.0 |
| 20260901023037 | 55 | 236 | 0.0 | 0.0 | 0.00 | 0.03 | 0.03 | 82 | 1013.0 |
| 20260901021543 | 55 | 236 | 0.0 | 0.9 | 0.00 | 0.03 | 0.03 | 81 | 1012.9 |
| 20260901020038 | 56 | 236 | 0.0 | 0.9 | 0.00 | 0.03 | 0.03 | 83 | 1012.9 |
| 20260901014538 | 56 | 236 | 0.0 | 0.0 | 0.01 | 0.03 | 0.03 | 82 | 1013.0 |
| 20260901013035 | 56 | 236 | 0.0 | 1.7 | 0.03 | 0.03 | 0.03 | 82 | 1013.0 |
| 20260901011532 | 57 | 252 | 0.0 | 1.7 | 0.03 | 0.03 | 0.03 | 81 | 1013.1 |
| 20260901010035 | 58 | 244 | 0.0 | 0.9 | 0.03 | 0.03 | 0.03 | 80 | 1013.4 |
| 20260901004529 | 59 | 227 | 1.7 | 6.1 | 0.01 | 0.01 | 0.01 | 72 | 1013.4 |
| 20260901003032 | 60 | 176 | 0.9 | 6.1 | 0.00 | 0.00 | 0.00 | 66 | 1013.0 |
| 20260901001532 | 61 | 281 | 0.0 | 0.9 | 0.00 | 0.00 | 0.00 | 67 | 1012.8 |
| 20260901000027 | 61 | 208 | 0.0 | 4.3 | 0.00 | 0.00 | 0.00 | 64 | 1013.0 |
| 20260831234532 | 64 | 309 | 3.5 | 8.7 | 0.00 | 0.00 | 0.00 | 55 | 1012.8 |
| 20260831233025 | 66 | 206 | 0.0 | 8.7 | 0.00 | 0.00 | 0.00 | 47 | 1012.2 |
| 20260831231536 | 68 | 126 | 2.6 | 7.0 | 0.00 | 0.00 | 0.00 | 42 | 1011.9 |
| 20260831230030 | 70 | 169 | 4.3 | 8.7 | 0.00 | 0.00 | 0.00 | 39 | 1011.4 |
| 20260831224545 | 71 | 174 | 4.3 | 10.4 | 0.00 | 0.00 | 0.00 | 39 | 1011.0 |
| 20260831223023 | 72 | 126 | 1.7 | 7.0 | 0.00 | 0.00 | 0.00 | 39 | 1011.1 |
| 20260831221523 | 73 | 136 | 2.6 | 7.0 | 0.00 | 0.00 | 0.00 | 38 | 1011.3 |
| 20260831220022 | 74 | 124 | 3.5 | 8.7 | 0.00 | 0.00 | 0.00 | 36 | 1011.3 |
| 20260831214525 | 75 | 170 | 1.7 | 7.0 | 0.00 | 0.00 | 0.00 | 35 | 1011.4 |
| 20260831213020 | 75 | 128 | 1.7 | 6.1 | 0.00 | 0.00 | 0.00 | 30 | 1011.7 |
| 20260831211517 | 76 | 148 | 1.7 | 5.2 | 0.00 | 0.00 | 0.00 | 29 | 1012.1 |
| 20260831210017 | 75 | 160 | 0.9 | 6.1 | 0.00 | 0.02 | 0.00 | 31 | 1012.5 |
| 20260831204509 | 74 | 169 | 0.9 | 6.1 | 0.00 | 0.02 | 0.00 | 33 | 1012.7 |
| 20260831203013 | 73 | 207 | 1.7 | 6.1 | 0.00 | 0.02 | 0.00 | 34 | 1013.0 |
| 20260831201506 | 72 | 215 | 0.0 | 8.7 | 0.00 | 0.02 | 0.00 | 36 | 1013.3 |
| 20260831200005 | 72 | 58 | 0.0 | 4.3 | 0.00 | 0.02 | 0.00 | 35 | 1013.4 |
| 20260831194508 | 73 | 149 | 0.0 | 4.3 | 0.00 | 0.02 | 0.00 | 36 | 1013.6 |
| 20260831193103 | 72 | 148 | 2.6 | 7.8 | 0.00 | 0.02 | 0.00 | 34 | 1013.9 |
| 20260831191559 | 71 | 211 | 0.9 | 7.0 | 0.00 | 0.02 | 0.00 | 38 | 1014.0 |
| 20260831190115 | 71 | 129 | 2.6 | 9.6 | 0.00 | 0.02 | 0.00 | 37 | 1014.1 |
| 20260831184559 | 71 | 186 | 3.5 | 9.6 | 0.00 | 0.02 | 0.00 | 38 | 1014.3 |
| 20260831183056 | 71 | 126 | 0.9 | 6.1 | 0.00 | 0.02 | 0.00 | 38 | 1014.3 |
| 20260831181552 | 69 | 294 | 3.5 | 9.6 | 0.00 | 0.02 | 0.00 | 41 | 1014.3 |
| 20260831180050 | 69 | 273 | 1.7 | 7.8 | 0.00 | 0.02 | 0.00 | 43 | 1014.5 |
| 20260831174548 | 68 | 263 | 1.7 | 7.8 | 0.00 | 0.02 | 0.00 | 44 | 1014.9 |
| 20260831173047 | 67 | 197 | 2.6 | 13.0 | 0.00 | 0.02 | 0.00 | 46 | 1014.9 |
| 20260831171540 | 66 | 178 | 0.9 | 9.6 | 0.00 | 0.02 | 0.00 | 47 | 1014.8 |
| 20260831170037 | 65 | 188 | 2.6 | 6.1 | 0.00 | 0.02 | 0.00 | 48 | 1014.9 |
| 20260831164533 | 64 | 304 | 1.7 | 8.7 | 0.00 | 0.02 | 0.00 | 50 | 1015.1 |
| 20260831163032 | 63 | 207 | 0.9 | 5.2 | 0.00 | 0.02 | 0.00 | 51 | 1014.9 |
| 20260831161528 | 60 | 294 | 0.9 | 3.5 | 0.00 | 0.02 | 0.00 | 58 | 1014.8 |
| 20260831160028 | 58 | 294 | 0.0 | 0.9 | 0.00 | 0.02 | 0.00 | 62 | 1014.8 |
| 20260831154521 | 57 | 294 | 0.0 | 1.7 | 0.00 | 0.02 | 0.00 | 65 | 1014.7 |
| 20260831153014 | 56 | 294 | 0.0 | 0.0 | 0.00 | 0.02 | 0.00 | 67 | 1014.8 |
| 20260831151520 | 55 | 294 | 0.0 | 0.0 | 0.00 | 0.02 | 0.00 | 67 | 1014.8 |
| 20260831150011 | 54 | 294 | 0.0 | 0.0 | 0.00 | 0.02 | 0.00 | 67 | 1014.6 |
| 20260831144505 | 54 | 294 | 0.0 | 0.0 | 0.00 | 0.02 | 0.00 | 67 | 1014.7 |
| 20260831143008 | 53 | 294 | 0.0 | 0.9 | 0.00 | 0.02 | 0.00 | 68 | 1014.5 |
| 20260831141601 | 53 | 294 | 0.0 | 0.0 | 0.00 | 0.02 | 0.00 | 68 | 1014.4 |
| 20260831140057 | 52 | 294 | 0.0 | 0.9 | 0.00 | 0.02 | 0.00 | 68 | 1014.1 |
| 20260831134600 | 52 | 309 | 0.0 | 0.9 | 0.00 | 0.02 | 0.00 | 68 | 1013.8 |
| 20260831133053 | 51 | 301 | 0.0 | 0.9 | 0.00 | 0.02 | 0.00 | 68 | 1013.8 |
| 20260831131605 | 51 | 300 | 0.0 | 0.9 | 0.00 | 0.02 | 0.00 | 68 | 1013.7 |
| 20260831124550 | 51 | 300 | 0.0 | 0.0 | 0.00 | 0.02 | 0.00 | 67 | 1013.1 |
| 20260831123046 | 51 | 300 | 0.0 | 0.9 | 0.00 | 0.02 | 0.00 | 67 | 1012.8 |
| 20260831121548 | 51 | 296 | 0.0 | 0.0 | 0.00 | 0.02 | 0.00 | 66 | 1012.6 |
| 20260831120041 | 51 | 292 | 0.0 | 1.7 | 0.00 | 0.02 | 0.00 | 66 | 1012.3 |
| 20260831114538 | 51 | 316 | 0.0 | 0.9 | 0.00 | 0.02 | 0.00 | 65 | 1012.4 |
| 20260831113036 | 52 | 294 | 0.0 | 0.9 | 0.00 | 0.02 | 0.00 | 64 | 1012.2 |
| 20260831111535 | 52 | 289 | 0.0 | 0.9 | 0.00 | 0.02 | 0.00 | 63 | 1012.0 |
| 20260831110035 | 52 | 288 | 0.0 | 0.9 | 0.00 | 0.02 | 0.00 | 63 | 1011.8 |
| 20260831104536 | 52 | 288 | 0.0 | 0.9 | 0.00 | 0.02 | 0.00 | 63 | 1011.8 |
| 20260831103033 | 52 | 285 | 0.0 | 0.9 | 0.00 | 0.02 | 0.00 | 63 | 1011.5 |
| 20260831101531 | 52 | 284 | 0.0 | 0.9 | 0.00 | 0.02 | 0.00 | 64 | 1011.4 |
| 20260831100046 | 52 | 292 | 0.0 | 0.0 | 0.00 | 0.02 | 0.00 | 63 | 1011.0 |